Regional Weather Roundup
Issued by NWS

Home | Current Version | Previous Version | Graphics & Text | Print | Product List | Glossary On
Versions: 1 2 3 4 5 6 7 8 9 10 11 12 13 14 15 16 17 18 19 20 21 22 23 24 25 26 27 28 29 30 31 32 33 34 35 36 37 38 39 40 41 42 43 44 45 46 47 48 49 50
617
ASUS43 KMKX 282021
RWRWI

WISCONSIN REGIONAL WEATHER ROUNDUP
NATIONAL WEATHER SERVICE MILWAUKEE/SULLIVAN WI
300 PM CDT SUN MAY 28 2017

NOTE: "FAIR" INDICATES FEW OR NO CLOUDS BELOW 12,000 FEET WITH NO
SIGNIFICANT WEATHER AND/OR OBSTRUCTIONS TO VISIBILITY.

WIZ001-002-006>008-014>016-023>028-282100-
NORTHWEST WISCONSIN

CITY           SKY/WX    TMP DP  RH WIND       PRES   REMARKS
SUPERIOR ARPT  NOT AVBL
ASHLAND        PTSUNNY   63  54  72 N7        29.65F
HAYWARD        PTSUNNY   66  42  41 W8        29.65S
SIREN          MOSUNNY   68  46  45 NW20G25   29.68S
CUMBERLAND     MOSUNNY   64  45  48 W18G29    29.69S
RICE LAKE      CLOUDY    67  44  44 W18       29.71S
CHETEK         PTSUNNY   68  49  50 W14G22    29.69F
LADYSMITH      PTSUNNY   68  46  45 W16G22    29.68F
EAU CLAIRE     PTSUNNY   69  47  45 W17G28    29.70S
MENOMONIE      PTSUNNY   69  46  43 W14       29.71S
NEW RICHMOND   PTSUNNY   68  45  43 W14       29.71S
OSCEOLA        PTSUNNY   67  50  53 W14       29.74R
$$

WIZ003>005-009-010-017-018-282100-
NORTH CENTRAL WISCONSIN

CITY           SKY/WX    TMP DP  RH WIND       PRES   REMARKS
MANITOWISH WTR PTSUNNY   61  54  77 W12       29.64R
ARBOR VITAE    MOSUNNY   62  56  81 NW6       29.63F
WOODRUFF       MOSUNNY   62  56  81 NW6       29.63F
RHINELANDER    MOSUNNY   70  51  51 W22G32    29.63F
EAGLE RIVER    RAIN      55  49  82 NW5       29.64R
LAND O LAKES   RAIN      56  54  92 NW5       29.67R
PHILLIPS       MOSUNNY   67  44  42 W12G20    29.64S
TOMAHAWK       MOSUNNY   67  47  48 W8G17     29.65R
MEDFORD        MOSUNNY   66  44  44 W14G26    29.67S
MERRILL        MOSUNNY   70  49  47 W18G26    29.64S
$$

WIZ029-030-035-036-043>047-282100-
CENTRAL WISCONSIN

CITY           SKY/WX    TMP DP  RH WIND       PRES   REMARKS
WAUSAU         PTSUNNY   70  48  45 W17G28    29.63F
MOSINEE        PTSUNNY   70  48  46 W18G25    29.66F
MARSHFIELD     PTSUNNY   68  45  43 W18G26    29.66S
STEVENS POINT  PTSUNNY   71  45  39 W17G30    29.65F
WAUPACA        PTSUNNY   74  52  45 S12G22    29.65F
WAUTOMA        MOSUNNY   74  51  44 SW17      29.67
WISC RAPIDS    PTSUNNY   74  46  36 W16G24    29.67S
CAMP DOUGLAS   SUNNY     74  49  41 W23       29.68F
$$

WIZ011>013-019>022-031-037>040-048>050-282100-
NORTHEAST WISCONSIN

CITY           SKY/WX    TMP DP  RH WIND       PRES   REMARKS
ANTIGO         CLOUDY    60  55  84 SW6       29.65R
SHAWANO        PTSUNNY   73  51  46 SW7       29.64F
OCONTO         MOSUNNY   71  57  61 S6        29.63F
STURGEON BAY   PTSUNNY   67  56  67 S9        29.67F
GREEN BAY      SUNNY     72  58  61 SW13      29.66F
MANITOWOC      PTSUNNY   63  57  81 SE10      29.69F
APPLETON       PTSUNNY   72  50  46 SW12G17   29.66F
CLINTONVILLE   PTSUNNY   72  50  46 SW10G20   29.64F
OSHKOSH        SUNNY     72  52  49 SW12G21   29.67F
$$

WIZ032>034-041-042-053>061-282100-
SOUTHWEST WISCONSIN

CITY           SKY/WX    TMP DP  RH WIND       PRES   REMARKS
LA CROSSE      PTSUNNY   75  48  38 NW14G23   29.72S
SPARTA         MOSUNNY   73  46  38 W15G22    29.72R
VIROQUA        MOSUNNY   70  43  37 SW15G25   29.75R
BOSCOBEL       SUNNY     77  42  28 W16G26    29.73S
PRAIRIE DU CHI SUNNY     76  38  25 NW22G31   29.74S
PLATTEVILLE    SUNNY     75  48  37 W20G28    29.75S
$$

WIZ056-057-062-063-064-067-068-282100-
SOUTH CENTRAL WISCONSIN

CITY           SKY/WX    TMP DP  RH WIND       PRES   REMARKS
REEDSBURG      MOSUNNY   75  46  35 W21G28    29.70S
BARABOO/DELLS  MOSUNNY   73  44  35 W17G29    29.69F
LONE ROCK      MOSUNNY   76  43  30 W23G31    29.71S
MINERAL POINT  MOSUNNY   73  45  35 W18       29.74S
MADISON        PTSUNNY   72  51  47 SW7       29.70F
MIDDLETON      PTSUNNY   74  55  50 SW17G23   29.71F
WATERTOWN      MOSUNNY   71  56  59 SW9       29.71F
MONROE         PTSUNNY   73  52  46 W17       29.74F
JANESVILLE     MOSUNNY   73  54  49 SW9       29.74F
$$

WIZ051-052-058>065-066-070>072-282100-
SOUTHEAST WISCONSIN

CITY           SKY/WX    TMP DP  RH WIND       PRES   REMARKS
MILWAUKEE      MOSUNNY   73  55  53 W8        29.72S
WAUKESHA       MOSUNNY   70  54  56 SW16      29.74F
MILWAUKEE/TIMM MOSUNNY   72  52  49 W9G16     29.73F
RACINE         MOSUNNY   65  58  78 E7        29.74F
KENOSHA        MOSUNNY   72  59  63 W10       29.73S
FOND DU LAC    LGT RAIN  73  54  51 SW12      29.69F
SHEBOYGAN      SUNNY     71  57  61 W10       29.69F
WEST BEND      MOSUNNY   70  52  52 W13       29.71S
JUNEAU         MOSUNNY   69  56  63 SW8       29.72F
$$

LSZ147-162-282100-
LAKE SUPERIOR

STATION/POSITION TIME  TEMP    WIND        PRES    WAVE
                       AIR SEA DIR/SP/G            HT/PER
                 (UTC) (F)     (DEG/KT/KT) (MB)    (FT/S)
W MID LAKE BUOY  1950   48 38  110/  2/  6 1003.8F   1
DEVILS ISLAND    2000   53     130/  3/  5 1004.3R
PORT WING        1940   57      20/  2/  2 1004.1S
SAXON HARBOR     1930   55      90/  2/  3 1004.4S
$$

LMZ867-665-643>646-282100-
LAKE MICHIGAN

STATION/POSITION TIME  TEMP    WIND        PRES    WAVE
                       AIR SEA DIR/SP/G            HT/PER
                 (UTC) (F)     (DEG/KT/KT) (MB)    (FT/S)
CHAMBERS ISLAND  1940   62     150/  7/ 12 1004.1F
N MID LAKE BUOY  1950   45 41  150/  8/  8 1005.5F   0
NORTHPORT PIER   1940   54     150/  8/ 11 1004.7F
KEWAUNEE LAKESHO 1954   52     180/  9/ 11 1004.9F
SHEBOYGAN LAKESH 2000   52     160/ 11/ 12 1005.5F
PORT WASHINGTON  1940   61     180/  3/  5 1007.1F
ATWATER BUOY     1909   53     120/  6/  8 1006.6F
MILWAUKEE LAKESH 2000   53     140/  1/  3   N/A
S MID LAKE BUOY  1950   53 49  300/  2/  4 1006.9S   0
KENOSHA   LAKESH 2000   56        CALM     1006.8
$$

TC  - TEMPERATURE IN CELSIUS
VSB - VISIBILITY IN STATUTE MILES
WCI - WIND CHILL INDEX
HX  - HEAT INDEX





USA.gov is the U.S. government's official web portal to all federal, state and local government web resources and services.